,,PressureMeas_1m,,PRMeasQMR101_1,,RHStat155_1m_1,,SRMeasQMS101R_1m,,TAStat155_1m_1,,GenWind_1,,GenWind_1,
2018-05-12, 07:00:06,VALID,916.706,VALID,0.0,VALID,94.175,VALID,66.135,VALID,21.223,VALID,131.0,VALID,0.0,
2018-05-12, 07:01:06,VALID,916.713,VALID,0.0,VALID,94.318,VALID,69.246,VALID,21.236,INVALID,360.0,VALID,0.0,
2018-05-12, 07:02:06,VALID,916.723,VALID,0.0,VALID,94.437,VALID,71.499,VALID,21.216,INVALID,360.0,VALID,0.0,
2018-05-12, 07:03:06,VALID,916.739,VALID,0.0,VALID,94.865,VALID,73.821,VALID,21.148,INVALID,360.0,VALID,0.0,
2018-05-12, 07:04:06,VALID,916.767,VALID,0.0,VALID,95.465,VALID,76.844,VALID,21.083,INVALID,360.0,VALID,0.0,
2018-05-12, 07:05:06,VALID,916.792,VALID,0.0,VALID,95.825,VALID,79.945,VALID,21.06,INVALID,360.0,VALID,0.0,
2018-05-12, 07:06:06,VALID,916.821,VALID,0.0,VALID,96.099,VALID,82.872,VALID,21.064,VALID,122.0,VALID,0.0,
2018-05-12, 07:07:06,VALID,916.857,VALID,0.0,VALID,96.255,VALID,83.837,VALID,21.081,VALID,130.0,VALID,0.0,
2018-05-12, 07:08:06,VALID,916.859,VALID,0.0,VALID,96.284,VALID,84.08,VALID,21.11,VALID,128.0,VALID,0.0,
2018-05-12, 07:09:06,VALID,916.865,VALID,0.0,VALID,96.315,VALID,84.653,VALID,21.169,VALID,126.0,VALID,0.0,
2018-05-12, 07:10:06,VALID,916.868,VALID,0.0,VALID,96.351,VALID,86.243,VALID,21.222,VALID,136.0,VALID,0.0,
2018-05-12, 07:11:06,VALID,916.889,VALID,0.0,VALID,96.093,VALID,88.33,VALID,21.26,VALID,130.0,VALID,0.0,
2018-05-12, 07:12:06,VALID,916.897,VALID,0.0,VALID,95.779,VALID,87.97,VALID,21.307,VALID,126.0,VALID,0.0,
2018-05-12, 07:13:06,VALID,916.922,VALID,0.0,VALID,95.658,VALID,83.725,VALID,21.372,VALID,120.0,VALID,0.0,
2018-05-12, 07:14:06,VALID,916.938,VALID,0.0,VALID,95.013,VALID,76.993,VALID,21.403,VALID,122.0,VALID,0.0,
2018-05-12, 07:15:06,VALID,916.944,VALID,0.0,VALID,94.386,VALID,69.373,VALID,21.44,VALID,126.0,VALID,0.0,
2018-05-12, 07:16:06,VALID,916.954,VALID,0.0,VALID,94.244,VALID,62.882,VALID,21.507,VALID,125.0,VALID,0.0,
2018-05-12, 07:17:06,VALID,916.958,VALID,0.0,VALID,94.117,VALID,58.639,VALID,21.561,VALID,133.0,VALID,0.0,
2018-05-12, 07:18:06,VALID,916.959,VALID,0.0,VALID,93.91,VALID,56.631,VALID,21.607,VALID,83.0,VALID,0.0,
2018-05-12, 07:19:06,VALID,916.959,VALID,0.0,VALID,94.414,VALID,55.83,VALID,21.649,VALID,43.0,VALID,0.0,
2018-05-12, 07:20:06,VALID,916.958,VALID,0.0,VALID,94.318,VALID,56.966,VALID,21.63,VALID,26.0,VALID,0.0,
2018-05-12, 07:21:06,VALID,916.956,VALID,0.0,VALID,93.886,VALID,60.531,VALID,21.573,VALID,28.0,VALID,0.0,
2018-05-12, 07:22:06,VALID,916.982,VALID,0.0,VALID,94.055,VALID,66.715,VALID,21.564,VALID,44.0,VALID,0.0,
2018-05-12, 07:23:06,VALID,916.986,VALID,0.0,VALID,94.224,VALID,74.83,VALID,21.554,VALID,52.0,VALID,0.0,
2018-05-12, 07:24:06,VALID,917.017,VALID,0.0,VALID,94.014,VALID,83.368,VALID,21.519,VALID,68.0,VALID,0.0,
2018-05-12, 07:25:07,VALID,917.04,VALID,0.0,VALID,93.746,VALID,91.289,VALID,21.528,VALID,77.0,VALID,0.0,
2018-05-12, 07:26:07,VALID,917.079,VALID,0.0,VALID,93.87,VALID,97.876,VALID,21.533,VALID,84.0,VALID,0.0,
2018-05-12, 07:27:07,VALID,917.108,VALID,0.0,VALID,94.376,VALID,102.663,VALID,21.571,VALID,85.0,VALID,0.0,
2018-05-12, 07:28:07,VALID,917.131,VALID,0.0,VALID,94.82,VALID,106.476,VALID,21.606,VALID,89.0,VALID,0.0,
2018-05-12, 07:29:07,VALID,917.139,VALID,0.0,VALID,94.873,VALID,110.473,VALID,21.601,VALID,93.0,VALID,0.0,
2018-05-12, 07:30:07,VALID,917.146,VALID,0.0,VALID,94.614,VALID,114.663,VALID,21.568,VALID,85.0,VALID,0.0,
2018-05-12, 07:31:07,VALID,917.158,VALID,0.0,VALID,95.212,VALID,119.28,VALID,21.58,VALID,91.0,VALID,0.0,
2018-05-12, 07:32:07,VALID,917.157,VALID,0.0,VALID,95.562,VALID,122.385,VALID,21.568,VALID,95.0,VALID,0.0,
2018-05-12, 07:33:07,VALID,917.163,VALID,0.0,VALID,95.906,VALID,124.074,VALID,21.523,VALID,100.0,VALID,0.0,
2018-05-12, 07:34:07,VALID,917.173,VALID,0.0,VALID,95.96,VALID,124.624,VALID,21.47,VALID,101.0,VALID,0.0,
2018-05-12, 07:35:07,VALID,917.196,VALID,0.0,VALID,95.926,VALID,123.583,VALID,21.463,VALID,105.0,VALID,0.0,
2018-05-12, 07:36:07,VALID,917.227,VALID,0.0,VALID,96.074,VALID,120.83,VALID,21.45,VALID,118.0,VALID,0.0,
2018-05-12, 07:37:07,VALID,917.266,VALID,0.0,VALID,95.656,VALID,116.289,VALID,21.366,VALID,114.0,VALID,0.0,
2018-05-12, 07:38:07,VALID,917.303,VALID,0.0,VALID,95.945,VALID,107.928,VALID,21.352,VALID,119.0,VALID,0.0,
2018-05-12, 07:39:07,VALID,917.332,VALID,0.0,VALID,96.334,VALID,95.701,VALID,21.366,VALID,130.0,VALID,0.0,
2018-05-12, 07:40:07,VALID,917.35,VALID,0.0,VALID,96.378,VALID,84.754,VALID,21.36,VALID,127.0,VALID,0.0,
2018-05-12, 07:41:07,VALID,917.371,VALID,0.0,VALID,96.348,VALID,77.603,VALID,21.352,VALID,122.0,VALID,0.0,
2018-05-12, 07:42:07,VALID,917.377,VALID,0.0,VALID,96.177,VALID,71.658,VALID,21.344,VALID,129.0,VALID,0.0,
2018-05-12, 07:43:07,VALID,917.391,VALID,0.0,VALID,96.243,VALID,67.738,VALID,21.327,VALID,129.0,VALID,0.0,
2018-05-12, 07:44:07,VALID,917.406,VALID,0.0,VALID,96.275,VALID,64.143,VALID,21.298,VALID,127.0,VALID,0.0,
2018-05-12, 07:45:07,VALID,917.427,VALID,0.0,VALID,96.404,VALID,61.006,VALID,21.27,VALID,119.0,VALID,0.0,
2018-05-12, 07:46:07,VALID,917.46,VALID,0.0,VALID,96.478,VALID,58.769,VALID,21.262,VALID,117.0,VALID,0.0,
2018-05-12, 07:47:07,VALID,917.505,VALID,0.0,VALID,96.177,VALID,58.306,VALID,21.267,VALID,118.0,VALID,0.0,
2018-05-12, 07:48:07,VALID,917.554,VALID,0.0,VALID,95.813,VALID,59.531,VALID,21.298,VALID,130.0,VALID,0.0,
2018-05-12, 07:49:07,VALID,917.596,VALID,0.0,VALID,95.593,VALID,61.524,VALID,21.361,VALID,111.0,VALID,0.0,
2018-05-12, 07:50:07,VALID,917.617,VALID,0.0,VALID,95.201,VALID,63.37,VALID,21.407,INVALID,360.0,VALID,0.0,
2018-05-12, 07:51:07,VALID,917.642,VALID,0.0,VALID,94.719,VALID,63.907,VALID,21.435,INVALID,360.0,VALID,0.0,
2018-05-12, 07:52:07,VALID,917.63,VALID,0.0,VALID,94.552,VALID,63.553,VALID,21.464,INVALID,360.0,VALID,0.0,
2018-05-12, 07:53:07,VALID,917.642,VALID,0.0,VALID,94.893,VALID,62.51,VALID,21.513,INVALID,360.0,VALID,0.0,
2018-05-12, 07:54:07,VALID,917.648,VALID,0.0,VALID,95.407,VALID,60.871,VALID,21.531,INVALID,360.0,VALID,0.0,
2018-05-12, 07:55:07,VALID,917.645,VALID,0.0,VALID,95.228,VALID,59.2,VALID,21.488,INVALID,360.0,VALID,0.0,
2018-05-12, 07:56:07,VALID,917.64,VALID,0.0,VALID,94.98,VALID,58.669,VALID,21.455,INVALID,360.0,VALID,0.0,
2018-05-12, 07:57:07,VALID,917.64,VALID,0.0,VALID,94.917,VALID,59.078,VALID,21.431,INVALID,360.0,VALID,0.0,
2018-05-12, 07:58:07,VALID,917.641,VALID,0.0,VALID,94.79,VALID,59.549,VALID,21.42,INVALID,360.0,VALID,0.0,
2018-05-12, 07:59:07,VALID,917.646,VALID,0.0,VALID,94.874,VALID,60.075,VALID,21.439,INVALID,360.0,VALID,0.0,
2018-05-12, 08:00:07,VALID,917.668,VALID,0.0,VALID,94.917,VALID,61.335,VALID,21.462,INVALID,360.0,VALID,0.0,
2018-05-12, 08:01:07,VALID,917.685,VALID,0.0,VALID,95.051,VALID,63.16,VALID,21.481,INVALID,360.0,VALID,0.0,
2018-05-12, 08:02:07,VALID,917.708,VALID,0.0,VALID,95.142,VALID,64.913,VALID,21.512,INVALID,360.0,VALID,0.0,
2018-05-12, 08:03:07,VALID,917.712,VALID,0.0,VALID,94.998,VALID,65.985,VALID,21.536,INVALID,360.0,VALID,0.0,
2018-05-12, 08:04:07,VALID,917.725,VALID,0.0,VALID,94.783,VALID,67.426,VALID,21.544,INVALID,360.0,VALID,0.0,
2018-05-12, 08:05:07,VALID,917.743,VALID,0.0,VALID,94.576,VALID,69.218,VALID,21.535,INVALID,360.0,VALID,0.0,
2018-05-12, 08:06:07,VALID,917.764,VALID,0.0,VALID,94.832,VALID,71.202,VALID,21.553,VALID,143.0,VALID,0.0,
2018-05-12, 08:07:07,VALID,917.772,VALID,0.0,VALID,94.885,VALID,74.888,VALID,21.549,INVALID,360.0,VALID,0.0,
2018-05-12, 08:08:07,VALID,917.768,VALID,0.0,VALID,94.973,VALID,77.91,VALID,21.547,INVALID,360.0,VALID,0.0,
2018-05-12, 08:09:07,VALID,917.768,VALID,0.0,VALID,94.817,VALID,77.771,VALID,21.548,INVALID,360.0,VALID,0.0,
2018-05-12, 08:10:07,VALID,917.772,VALID,0.0,VALID,94.9,VALID,77.184,VALID,21.566,INVALID,360.0,VALID,0.0,
2018-05-12, 08:11:07,VALID,917.783,VALID,0.0,VALID,94.495,VALID,76.809,VALID,21.573,INVALID,360.0,VALID,0.0,
2018-05-12, 08:12:07,VALID,917.794,VALID,0.0,VALID,94.363,VALID,75.82,VALID,21.606,INVALID,360.0,VALID,0.0,
2018-05-12, 08:13:07,VALID,917.796,VALID,0.0,VALID,94.41,VALID,75.298,VALID,21.64,VALID,140.0,VALID,0.0,
2018-05-12, 08:14:07,VALID,917.786,VALID,0.0,VALID,94.502,VALID,75.626,VALID,21.675,INVALID,360.0,VALID,0.0,
2018-05-12, 08:15:07,VALID,917.778,VALID,0.0,VALID,94.766,VALID,77.194,VALID,21.719,INVALID,360.0,VALID,0.0,
2018-05-12, 08:16:07,VALID,917.744,VALID,0.0,VALID,94.613,VALID,79.249,VALID,21.744,VALID,140.0,VALID,0.0,
2018-05-12, 08:17:07,VALID,917.713,VALID,0.0,VALID,94.432,VALID,82.379,VALID,21.766,VALID,123.0,VALID,0.0,
2018-05-12, 08:18:07,VALID,917.704,VALID,0.0,VALID,94.363,VALID,86.012,VALID,21.78,VALID,129.0,VALID,0.0,
2018-05-12, 08:19:07,VALID,917.706,VALID,0.0,VALID,94.463,VALID,88.958,VALID,21.821,VALID,125.0,VALID,0.0,
2018-05-12, 08:20:07,VALID,917.738,VALID,0.0,VALID,94.145,VALID,91.341,VALID,21.843,VALID,125.0,VALID,0.0,
2018-05-12, 08:21:07,VALID,917.753,VALID,0.0,VALID,93.029,VALID,94.058,VALID,21.842,VALID,124.0,VALID,0.0,
2018-05-12, 08:22:07,VALID,917.775,VALID,0.0,VALID,92.765,VALID,98.614,VALID,21.874,VALID,131.0,VALID,0.0,
2018-05-12, 08:23:07,VALID,917.784,VALID,0.0,VALID,92.88,VALID,106.455,VALID,21.908,VALID,115.0,VALID,0.0,
2018-05-12, 08:24:07,VALID,917.805,VALID,0.0,VALID,92.835,VALID,118.326,VALID,21.886,VALID,125.0,VALID,0.0,
2018-05-12, 08:25:07,VALID,917.81,VALID,0.0,VALID,92.842,VALID,132.153,VALID,21.879,VALID,130.0,VALID,0.0,
2018-05-12, 08:26:07,VALID,917.816,VALID,0.0,VALID,92.604,VALID,140.419,VALID,21.931,VALID,116.0,VALID,0.0,
2018-05-12, 08:27:07,VALID,917.809,VALID,0.0,VALID,91.29,VALID,143.937,VALID,21.998,VALID,122.0,VALID,0.458,
2018-05-12, 08:28:07,VALID,917.799,VALID,0.0,VALID,90.504,VALID,145.591,VALID,22.158,VALID,102.0,VALID,1.654,
2018-05-12, 08:29:07,VALID,917.795,VALID,0.0,VALID,90.626,VALID,147.556,VALID,22.289,VALID,102.0,VALID,1.157,
2018-05-12, 08:30:07,VALID,917.791,VALID,0.0,VALID,89.867,VALID,148.908,VALID,22.349,VALID,98.0,VALID,1.794,
2018-05-12, 08:31:07,VALID,917.792,VALID,0.0,VALID,89.48,VALID,147.942,VALID,22.382,VALID,89.0,VALID,1.766,
2018-05-12, 08:32:07,VALID,917.8,VALID,0.0,VALID,89.482,VALID,147.16,VALID,22.382,VALID,95.0,VALID,1.273,
2018-05-12, 08:33:07,VALID,917.808,VALID,0.0,VALID,90.361,VALID,149.721,VALID,22.429,VALID,106.0,VALID,1.284,
2018-05-12, 08:34:07,VALID,917.814,VALID,0.0,VALID,88.592,VALID,155.615,VALID,22.474,VALID,114.0,VALID,1.763,
2018-05-12, 08:35:07,VALID,917.845,VALID,0.0,VALID,88.336,VALID,162.376,VALID,22.511,VALID,116.0,VALID,1.786,
2018-05-12, 08:36:07,VALID,917.87,VALID,0.0,VALID,89.182,VALID,166.209,VALID,22.534,VALID,105.0,VALID,1.349,
2018-05-12, 08:37:07,VALID,917.875,VALID,0.0,VALID,89.669,VALID,168.427,VALID,22.602,VALID,117.0,VALID,1.261,
2018-05-12, 08:38:07,VALID,917.886,VALID,0.0,VALID,88.82,VALID,167.478,VALID,22.681,VALID,119.0,VALID,1.32,
2018-05-12, 08:39:07,VALID,917.896,VALID,0.0,VALID,88.111,VALID,163.493,VALID,22.689,VALID,110.0,VALID,1.232,
2018-05-12, 08:40:07,VALID,917.915,VALID,0.0,VALID,88.366,VALID,159.573,VALID,22.653,VALID,102.0,VALID,1.196,
2018-05-12, 08:41:07,VALID,917.924,VALID,0.0,VALID,88.269,VALID,156.834,VALID,22.644,VALID,90.0,VALID,1.336,
2018-05-12, 08:42:07,VALID,917.943,VALID,0.0,VALID,88.659,VALID,157.633,VALID,22.678,VALID,96.0,VALID,1.269,
2018-05-12, 08:43:07,VALID,917.946,VALID,0.0,VALID,89.464,VALID,162.627,VALID,22.713,VALID,101.0,VALID,0.493,
2018-05-12, 08:44:07,VALID,917.956,VALID,0.0,VALID,89.476,VALID,173.302,VALID,22.796,VALID,77.0,VALID,0.572,
2018-05-12, 08:45:07,VALID,917.971,VALID,0.0,VALID,89.434,VALID,186.369,VALID,22.878,VALID,66.0,VALID,0.62,
2018-05-12, 08:46:07,VALID,917.986,VALID,0.0,VALID,87.781,VALID,197.914,VALID,22.902,VALID,79.0,VALID,0.828,
2018-05-12, 08:47:07,VALID,918.007,VALID,0.0,VALID,88.417,VALID,210.225,VALID,22.903,VALID,75.0,VALID,0.574,
2018-05-12, 08:48:07,VALID,918.014,VALID,0.0,VALID,89.524,VALID,220.926,VALID,22.955,VALID,57.0,VALID,0.62,
2018-05-12, 08:49:07,VALID,918.036,VALID,0.0,VALID,88.24,VALID,229.419,VALID,22.966,VALID,76.0,VALID,0.154,
2018-05-12, 08:50:07,VALID,918.042,VALID,0.0,VALID,87.258,VALID,233.131,VALID,23.021,VALID,116.0,VALID,0.0,
2018-05-12, 08:51:07,VALID,918.048,VALID,0.0,VALID,86.45,VALID,235.37,VALID,23.162,VALID,114.0,VALID,0.0,
2018-05-12, 08:52:07,VALID,918.074,VALID,0.0,VALID,84.861,VALID,246.282,VALID,23.311,VALID,121.0,VALID,0.0,
2018-05-12, 08:53:07,VALID,918.094,VALID,0.0,VALID,85.865,VALID,271.005,VALID,23.409,VALID,206.0,VALID,0.336,
2018-05-12, 08:54:07,VALID,918.106,VALID,0.0,VALID,88.107,VALID,317.48,VALID,23.214,VALID,232.0,VALID,0.921,
2018-05-12, 08:55:07,VALID,918.111,VALID,0.0,VALID,89.149,VALID,311.809,VALID,22.701,VALID,234.0,VALID,0.91,
2018-05-12, 08:56:07,VALID,918.129,VALID,0.0,VALID,91.151,VALID,304.622,VALID,22.387,VALID,238.0,VALID,0.833,
2018-05-12, 08:57:07,VALID,918.125,VALID,0.0,VALID,92.689,VALID,302.782,VALID,22.322,VALID,261.0,VALID,0.905,
2018-05-12, 08:58:07,VALID,918.156,VALID,0.0,VALID,92.411,VALID,297.397,VALID,22.256,VALID,260.0,VALID,0.863,
2018-05-12, 08:59:07,VALID,918.158,VALID,0.0,VALID,92.706,VALID,294.513,VALID,22.243,VALID,257.0,VALID,0.836,
2018-05-12, 09:00:07,VALID,918.185,VALID,0.0,VALID,92.8,VALID,288.926,VALID,22.239,VALID,261.0,VALID,0.37,
2018-05-12, 09:01:07,VALID,918.211,VALID,0.0,VALID,93.593,VALID,280.018,VALID,22.329,VALID,251.0,VALID,0.187,
2018-05-12, 09:02:07,VALID,918.221,VALID,0.0,VALID,92.697,VALID,271.01,VALID,22.423,VALID,282.0,VALID,0.345,
2018-05-12, 09:03:07,VALID,918.225,VALID,0.0,VALID,92.117,VALID,269.441,VALID,22.561,INVALID,360.0,VALID,0.005,
2018-05-12, 09:04:07,VALID,918.248,VALID,0.0,VALID,91.071,VALID,271.968,VALID,22.61,INVALID,360.0,VALID,0.096,
2018-05-12, 09:05:07,VALID,918.255,VALID,0.0,VALID,91.901,VALID,274.22,VALID,22.685,VALID,245.0,VALID,0.208,
2018-05-12, 09:06:07,VALID,918.264,VALID,0.0,VALID,91.915,VALID,278.426,VALID,22.858,VALID,251.0,VALID,0.102,
2018-05-12, 09:07:07,VALID,918.274,VALID,0.0,VALID,91.678,VALID,285.527,VALID,23.084,VALID,303.0,VALID,0.108,
2018-05-12, 09:08:07,VALID,918.286,VALID,0.0,VALID,90.537,VALID,294.628,VALID,23.291,VALID,351.0,VALID,0.193,
2018-05-12, 09:09:07,VALID,918.31,VALID,0.0,VALID,89.407,VALID,307.939,VALID,23.467,VALID,328.0,VALID,0.007,
2018-05-12, 09:10:07,VALID,918.322,VALID,0.0,VALID,88.175,VALID,320.331,VALID,23.595,VALID,304.0,VALID,0.0,
2018-05-12, 09:11:07,VALID,918.341,VALID,0.0,VALID,87.828,VALID,332.91,VALID,23.782,VALID,274.0,VALID,0.005,
2018-05-12, 09:12:07,VALID,918.34,VALID,0.0,VALID,85.839,VALID,338.736,VALID,23.851,VALID,138.0,VALID,0.538,
2018-05-12, 09:13:07,VALID,918.354,VALID,0.0,VALID,83.487,VALID,345.11,VALID,24.042,VALID,139.0,VALID,0.598,
2018-05-12, 09:14:07,VALID,918.377,VALID,0.0,VALID,82.322,VALID,353.388,VALID,24.249,VALID,112.0,VALID,1.862,
2018-05-12, 09:15:07,VALID,918.399,VALID,0.0,VALID,80.872,VALID,357.301,VALID,24.295,VALID,90.0,VALID,1.501,
2018-05-12, 09:16:07,VALID,918.413,VALID,0.0,VALID,80.727,VALID,354.474,VALID,24.253,VALID,114.0,VALID,1.627,
2018-05-12, 09:17:07,VALID,918.421,VALID,0.0,VALID,80.434,VALID,346.777,VALID,24.267,VALID,105.0,VALID,1.191,
2018-05-12, 09:18:07,VALID,918.429,VALID,0.0,VALID,81.147,VALID,340.291,VALID,24.319,VALID,96.0,VALID,1.478,
2018-05-12, 09:19:07,VALID,918.436,VALID,0.0,VALID,81.939,VALID,343.07,VALID,24.341,VALID,80.0,VALID,0.887,
2018-05-12, 09:20:07,VALID,918.443,VALID,0.0,VALID,82.357,VALID,341.357,VALID,24.423,VALID,118.0,VALID,1.225,
2018-05-12, 09:21:07,VALID,918.437,VALID,0.0,VALID,80.557,VALID,346.656,VALID,24.433,VALID,124.0,VALID,0.811,
2018-05-12, 09:22:07,VALID,918.428,VALID,0.0,VALID,81.544,VALID,346.746,VALID,24.487,VALID,149.0,VALID,0.417,
2018-05-12, 09:23:07,VALID,918.436,VALID,0.0,VALID,80.547,VALID,333.313,VALID,24.598,VALID,154.0,VALID,0.847,
2018-05-12, 09:24:07,VALID,918.438,VALID,0.0,VALID,80.085,VALID,311.063,VALID,24.562,VALID,130.0,VALID,0.932,
2018-05-12, 09:25:07,VALID,918.443,VALID,0.0,VALID,80.981,VALID,289.944,VALID,24.546,VALID,125.0,VALID,0.379,
2018-05-12, 09:26:07,VALID,918.458,VALID,0.0,VALID,82.114,VALID,271.555,VALID,24.672,VALID,109.0,VALID,1.168,
2018-05-12, 09:27:07,VALID,918.472,VALID,0.0,VALID,79.724,VALID,264.93,VALID,24.667,VALID,113.0,VALID,1.471,
2018-05-12, 09:28:07,VALID,918.461,VALID,0.0,VALID,79.676,VALID,265.696,VALID,24.609,VALID,106.0,VALID,1.539,
2018-05-12, 09:29:07,VALID,918.444,VALID,0.0,VALID,80.143,VALID,266.532,VALID,24.592,VALID,121.0,VALID,1.665,
2018-05-12, 09:30:07,VALID,918.43,VALID,0.0,VALID,80.627,VALID,280.081,VALID,24.59,VALID,103.0,VALID,1.857,
2018-05-12, 09:31:07,VALID,918.415,VALID,0.0,VALID,78.699,VALID,322.012,VALID,24.507,VALID,103.0,VALID,1.916,
2018-05-12, 09:32:06,VALID,918.393,VALID,0.0,VALID,79.711,VALID,390.905,VALID,24.488,VALID,72.0,VALID,2.024,
2018-05-12, 09:33:06,VALID,918.392,VALID,0.0,VALID,79.404,VALID,492.462,VALID,24.477,VALID,74.0,VALID,1.408,
2018-05-12, 09:34:06,VALID,918.383,VALID,0.0,VALID,80.055,VALID,442.397,VALID,24.466,VALID,66.0,VALID,1.152,
2018-05-12, 09:35:06,VALID,918.39,VALID,0.0,VALID,80.444,VALID,458.664,VALID,24.577,VALID,66.0,VALID,0.654,
2018-05-12, 09:36:06,VALID,918.396,VALID,0.0,VALID,80.063,VALID,744.417,VALID,24.805,VALID,99.0,VALID,1.836,
2018-05-12, 09:37:06,VALID,918.417,VALID,0.0,VALID,77.753,VALID,505.818,VALID,24.908,VALID,115.0,VALID,2.055,
2018-05-12, 09:38:06,VALID,918.415,VALID,0.0,VALID,79.621,VALID,691.66,VALID,25.1,VALID,63.0,VALID,1.452,
2018-05-12, 09:39:06,VALID,918.424,VALID,0.0,VALID,77.343,VALID,644.162,VALID,25.325,VALID,71.0,VALID,1.555,
2018-05-12, 09:40:06,VALID,918.429,VALID,0.0,VALID,76.22,VALID,509.955,VALID,25.377,VALID,75.0,VALID,0.303,
2018-05-12, 09:41:06,VALID,918.417,VALID,0.0,VALID,75.417,VALID,869.542,VALID,25.559,VALID,89.0,VALID,0.778,
2018-05-12, 09:42:06,VALID,918.416,VALID,0.0,VALID,75.842,VALID,877.882,VALID,25.826,VALID,100.0,VALID,0.68,
2018-05-12, 09:43:06,VALID,918.402,VALID,0.0,VALID,74.884,VALID,846.414,VALID,26.146,VALID,93.0,VALID,0.57,
2018-05-12, 09:44:06,VALID,918.386,VALID,0.0,VALID,74.897,VALID,829.235,VALID,26.404,VALID,75.0,VALID,0.775,
2018-05-12, 09:45:06,VALID,918.385,VALID,0.0,VALID,75.828,VALID,806.186,VALID,26.698,VALID,97.0,VALID,0.809,
2018-05-12, 09:46:06,VALID,918.396,VALID,0.0,VALID,73.863,VALID,733.452,VALID,27.026,VALID,98.0,VALID,1.222,
2018-05-12, 09:47:06,VALID,918.39,VALID,0.0,VALID,69.963,VALID,723.759,VALID,26.961,VALID,86.0,VALID,0.82,
2018-05-12, 09:48:06,VALID,918.394,VALID,0.0,VALID,71.339,VALID,626.498,VALID,26.787,VALID,74.0,VALID,2.088,
2018-05-12, 09:49:06,VALID,918.403,VALID,0.0,VALID,70.524,VALID,460.613,VALID,26.187,VALID,66.0,VALID,2.659,
2018-05-12, 09:50:06,VALID,918.399,VALID,0.0,VALID,73.178,VALID,724.645,VALID,25.56,VALID,68.0,VALID,2.24,
2018-05-12, 09:51:06,VALID,918.399,VALID,0.0,VALID,75.039,VALID,726.305,VALID,25.496,VALID,67.0,VALID,2.187,
2018-05-12, 09:52:06,VALID,918.409,VALID,0.0,VALID,72.868,VALID,511.877,VALID,25.473,VALID,77.0,VALID,2.632,
2018-05-12, 09:53:06,VALID,918.381,VALID,0.0,VALID,73.471,VALID,649.192,VALID,25.39,VALID,61.0,VALID,2.282,
2018-05-12, 09:54:06,VALID,918.359,VALID,0.0,VALID,76.697,VALID,795.007,VALID,25.367,VALID,56.0,VALID,1.571,
2018-05-12, 09:55:06,VALID,918.345,VALID,0.0,VALID,77.196,VALID,792.139,VALID,25.695,VALID,78.0,VALID,1.239,
2018-05-12, 09:56:06,VALID,918.337,VALID,0.0,VALID,73.724,VALID,737.266,VALID,26.008,VALID,84.0,VALID,1.586,
2018-05-12, 09:57:06,VALID,918.364,VALID,0.0,VALID,71.784,VALID,782.534,VALID,26.049,VALID,86.0,VALID,2.27,
2018-05-12, 09:58:06,VALID,918.353,VALID,0.0,VALID,72.732,VALID,872.07,VALID,26.126,VALID,53.0,VALID,1.726,
2018-05-12, 09:59:06,VALID,918.37,VALID,0.0,VALID,71.068,VALID,886.915,VALID,26.214,VALID,66.0,VALID,3.059,
2018-05-12, 10:00:06,VALID,918.395,VALID,0.0,VALID,73.238,VALID,876.882,VALID,26.079,VALID,78.0,VALID,3.033,
2018-05-12, 10:01:06,VALID,918.428,VALID,0.0,VALID,70.613,VALID,889.267,VALID,25.982,VALID,82.0,VALID,2.636,
2018-05-12, 10:02:06,VALID,918.402,VALID,0.0,VALID,72.268,VALID,690.289,VALID,25.771,VALID,80.0,VALID,2.793,
2018-05-12, 10:03:06,VALID,918.436,VALID,0.0,VALID,74.094,VALID,345.679,VALID,25.569,VALID,68.0,VALID,3.415,
2018-05-12, 10:04:06,VALID,918.444,VALID,0.0,VALID,75.217,VALID,397.826,VALID,25.305,VALID,56.0,VALID,2.1,
2018-05-12, 10:05:06,VALID,918.465,VALID,0.0,VALID,75.78,VALID,353.106,VALID,25.282,VALID,90.0,VALID,1.945,
2018-05-12, 10:06:06,VALID,918.455,VALID,0.0,VALID,74.097,VALID,328.024,VALID,25.283,VALID,60.0,VALID,2.409,
2018-05-12, 10:07:06,VALID,918.448,VALID,0.0,VALID,73.363,VALID,327.483,VALID,25.14,VALID,33.0,VALID,1.245,
2018-05-12, 10:08:06,VALID,918.426,VALID,0.0,VALID,73.889,VALID,342.801,VALID,25.066,VALID,42.0,VALID,2.334,
2018-05-12, 10:09:06,VALID,918.436,VALID,0.0,VALID,74.823,VALID,382.058,VALID,25.039,VALID,52.0,VALID,1.431,
2018-05-12, 10:10:06,VALID,918.43,VALID,0.0,VALID,75.575,VALID,519.057,VALID,25.106,VALID,42.0,VALID,2.321,
2018-05-12, 10:11:06,VALID,918.442,VALID,0.0,VALID,73.353,VALID,519.146,VALID,25.124,VALID,50.0,VALID,2.072,
2018-05-12, 10:12:06,VALID,918.43,VALID,0.0,VALID,73.68,VALID,458.14,VALID,25.044,VALID,70.0,VALID,2.013,
2018-05-12, 10:13:06,VALID,918.418,VALID,0.0,VALID,74.011,VALID,544.42,VALID,25.022,VALID,71.0,VALID,1.079,
2018-05-12, 10:14:06,VALID,918.412,VALID,0.0,VALID,75.293,VALID,587.109,VALID,25.197,VALID,45.0,VALID,2.073,
2018-05-12, 10:15:06,VALID,918.411,VALID,0.0,VALID,75.366,VALID,592.219,VALID,25.47,VALID,63.0,VALID,1.274,
2018-05-12, 10:16:06,VALID,918.429,VALID,0.0,VALID,74.014,VALID,563.894,VALID,25.749,VALID,54.0,VALID,0.932,
2018-05-12, 10:17:06,VALID,918.459,VALID,0.0,VALID,73.596,VALID,527.673,VALID,25.932,VALID,35.0,VALID,1.528,
2018-05-12, 10:18:06,VALID,918.493,VALID,0.0,VALID,72.081,VALID,594.494,VALID,25.891,VALID,48.0,VALID,2.069,
2018-05-12, 10:19:06,VALID,918.52,VALID,0.0,VALID,72.782,VALID,622.729,VALID,25.8,VALID,43.0,VALID,1.604,
2018-05-12, 10:20:06,VALID,918.545,VALID,0.0,VALID,72.674,VALID,697.159,VALID,25.755,VALID,61.0,VALID,1.236,
2018-05-12, 10:21:06,VALID,918.552,VALID,0.0,VALID,73.413,VALID,763.389,VALID,25.76,VALID,56.0,VALID,1.413,
2018-05-12, 10:22:06,VALID,918.562,VALID,0.0,VALID,73.556,VALID,770.087,VALID,25.801,VALID,44.0,VALID,0.998,
2018-05-12, 10:23:06,VALID,918.546,VALID,0.0,VALID,73.415,VALID,746.364,VALID,25.901,VALID,14.0,VALID,1.471,
2018-05-12, 10:24:06,VALID,918.539,VALID,0.0,VALID,74.563,VALID,766.972,VALID,26.097,VALID,13.0,VALID,1.664,
2018-05-12, 10:25:06,VALID,918.526,VALID,0.0,VALID,73.083,VALID,696.473,VALID,26.211,VALID,33.0,VALID,1.666,
2018-05-12, 10:26:06,VALID,918.544,VALID,0.0,VALID,73.896,VALID,651.542,VALID,26.355,VALID,29.0,VALID,2.095,
2018-05-12, 10:27:06,VALID,918.547,VALID,0.0,VALID,70.497,VALID,575.587,VALID,26.293,INVALID,360.0,VALID,0.875,
2018-05-12, 10:28:06,VALID,918.508,VALID,0.0,VALID,71.486,VALID,573.202,VALID,25.999,INVALID,360.0,VALID,0.0,
2018-05-12, 10:29:06,VALID,918.476,VALID,0.0,VALID,72.301,VALID,639.986,VALID,25.845,INVALID,360.0,VALID,0.0,
2018-05-12, 10:30:06,VALID,918.444,VALID,0.0,VALID,73.471,VALID,651.935,VALID,25.921,INVALID,360.0,VALID,0.0,
2018-05-12, 10:31:06,VALID,918.397,VALID,0.0,VALID,72.081,VALID,582.805,VALID,26.189,INVALID,360.0,VALID,0.0,
2018-05-12, 10:32:06,VALID,918.377,VALID,0.0,VALID,73.156,VALID,614.048,VALID,26.574,INVALID,360.0,VALID,0.0,
2018-05-12, 10:33:06,VALID,918.371,VALID,0.0,VALID,71.209,VALID,600.833,VALID,26.669,INVALID,360.0,VALID,0.0,
2018-05-12, 10:34:06,VALID,918.382,VALID,0.0,VALID,71.102,VALID,716.516,VALID,26.459,INVALID,360.0,VALID,0.0,
2018-05-12, 10:35:06,VALID,918.377,VALID,0.0,VALID,68.832,VALID,665.625,VALID,26.26,INVALID,360.0,VALID,0.0,
2018-05-12, 10:36:06,VALID,918.375,VALID,0.0,VALID,69.755,VALID,703.436,VALID,26.232,INVALID,360.0,VALID,0.0,
2018-05-12, 10:37:06,VALID,918.38,VALID,0.0,VALID,69.239,VALID,595.384,VALID,26.053,INVALID,360.0,VALID,0.0,